This demonstration page uses our WeatherBlox Daily Observations layout. Learn more.

Left ArrowRight Arrow

39.95238, -75.16362

Hourly Observations for January 2, 2022

Temp ( °F °C ) Dew Point ( °F °C ) Humidity (%) Winds ( mph kmh ) Pressure ( in mb ) Visibility ( mi km ) Precip ( " mm )
12:43 am 00:43 Cloudy with Light Rain 56 13.3 53 11.7 90 90 Calm 29.56 1001 10 16 0.01 0.25
12:48 am 00:48 Cloudy with Light Rain 55 13 54 12 94 94 Calm 29.55 1001 8 13 0.01 0.25
12:54 am 00:54 Cloudy with Light Rain 55 12.8 53 11.7 93 93 SSE 5 7 29.54 1000 8 13 0.01 0.25
1:16 am 01:16 Cloudy with Light Rain 54 12.2 53 11.7 97 97 WNW 3 6 29.57 1001 3 5 0.00 0.00
1:45 am 01:45 Cloudy with Light Rain 55 12.8 54 12.2 96 96 Calm 29.55 1001 7 11 0.01 0.25
1:54 am 01:54 Cloudy 56 13.3 54 12.2 93 93 Calm 29.56 1001 9 14 0.01 0.25
2:29 am 02:29 Cloudy with Light Rain 53 11.7 51 10.6 93 93 SW 5 7 29.57 1001 3 5 0.00 0.00
2:54 am 02:54 Cloudy with Light Rain 55 12.8 53 11.7 93 93 W 6 9 29.58 1002 3 5 0.01 0.25
3:43 am 03:43 Cloudy with Light Rain 55 12.8 53 11.7 93 93 WSW 7 11 29.60 1002 4 6 0.01 0.25
3:54 am 03:54 Cloudy with Light Rain 55 12.8 53 11.7 93 93 WSW 8 13 29.60 1002 4 6 0.01 0.25
4:39 am 04:39 Cloudy with Light Rain 54 12.2 52 11.1 93 93 S 6 9 29.58 1002 8 13 0.02 0.51
4:54 am 04:54 Cloudy 54 12.2 52 11.1 93 93 SSW 6 9 29.58 1002 7 11 0.02 0.51
5:01 am 05:01 Cloudy with Light Rain 55 12.8 53 11.7 93 93 SSW 5 7 29.58 1002 8 13 0.00 0.00
5:54 am 05:54 Cloudy with Light Rain 55 12.8 53 11.7 93 93 S 9 15 29.56 1001 7 11 0.01 0.25
6:54 am 06:54 Cloudy with Mist and Fog 55 12.8 53 11.7 93 93 SSW 8 13 29.57 1001 6 10 0.00 0.00
7:12 am 07:12 Cloudy with Mist and Fog 55 12.8 53 11.7 93 93 SSW 7 11 29.58 1002 2 3 0.00 0.00
7:54 am 07:54 Cloudy with Mist and Fog 55 12.8 53 11.7 93 93 WSW 7 11 29.59 1002 1 2 0.00 0.00
8:22 am 08:22 Cloudy with Mist and Fog 55 12.8 53 11.7 93 93 W 9 15 29.61 1003 2 3 0.00 0.00
8:54 am 08:54 Cloudy with Mist and Fog 55 12.8 53 11.7 93 93 W 8 13 29.63 1003 4 6 0.00 0.00
9:54 am 09:54 Cloudy with Mist and Fog 57 13.9 54 12.2 90 90 SW 14 22 29.66 1004 4 6 0.00 0.00
10:24 am 10:24 Cloudy with Mist and Fog 58 14.4 55 12.8 90 90 SW 16 26 29.68 1005 5 8 0.00 0.00
10:54 am 10:54 Cloudy with Mist and Fog 58 14.4 55 12.8 90 90 WSW 10 17 29.67 1005 5 8 0.00 0.00
11:06 am 11:06 Cloudy 59 15 56 13.3 90 90 WSW 9 15 29.66 1004 7 11 0.00 0.00
11:54 am 11:54 Mostly Cloudy 61 16.1 57 13.9 87 87 WSW 13 20 29.66 1004 8 13 0.00 0.00
12:32 pm 12:32 Mostly Cloudy 60 15.6 56 13.3 86 86 WSW 14 22 29.65 1004 10 16 0.00 0.00
12:54 pm 12:54 Mostly Cloudy 61 16.1 56 13.3 84 84 WSW 12 19 29.64 1004 10 16 0.00 0.00
1:54 pm 13:54 Cloudy 62 16.7 56 13.3 80 80 SW 10 17 29.66 1004 10 16 0.00 0.00
2:54 pm 14:54 Mostly Cloudy 63 17.2 56 13.3 78 78 SW 8 13 29.67 1005 10 16 0.00 0.00
3:54 pm 15:54 Cloudy 62 16.7 55 12.8 78 78 WSW 7 11 29.70 1006 10 16 0.00 0.00
4:54 pm 16:54 Cloudy 60 15.6 53 11.7 78 78 WSW 8 13 29.74 1007 10 16 0.00 0.00
5:54 pm 17:54 Cloudy with Light Rain 62 16.7 49 9.4 62 62 NW 16 26 29.80 1009 10 16 0.00 0.00
6:54 pm 18:54 Cloudy 54 12.2 42 5.6 64 64 NW 18 30 29.87 1012 10 16 0.00 0.00
7:54 pm 19:54 Cloudy 48 8.9 38 3.3 68 68 N 17 28 29.91 1013 10 16 0.00 0.00
8:54 pm 20:54 Mostly Cloudy 44 6.7 32 0 63 63 N 16 26 29.95 1014 10 16 0.00 0.00
9:54 pm 21:54 Mostly Cloudy 41 5 28 -2.2 60 60 NNW 20 31 29.98 1015 10 16 0.00 0.00
10:54 pm 22:54 Cloudy 40 4.4 27 -2.8 60 60 N 13 20 30.01 1016 10 16 0.00 0.00
11:54 pm 23:54 Cloudy 39 3.9 27 -2.8 62 62 N 13 20 30.04 1017 10 16 0.00 0.00

Powered by AerisWeather